Weather History for Rogers, AR

Change the Weather History Date:

Thursday, February 7, 2013

  Actual Average Record
Temperature  
Mean Temperature 50 °F -  
Max Temperature 55 °F 46 °F 64 °F (2001)
Min Temperature 43 °F 28 °F 6 °F (2003)
Degree Days  
Heating Degree Days 16    
Moisture  
Dew Point 48 °F    
Average Humidity 90    
Maximum Humidity 100    
Minimum Humidity 80    
Precipitation  
Precipitation 0.23 in - - ()
Sea Level Pressure  
Sea Level Pressure 29.94 in    
Wind  
Wind Speed 9 mph (WNW)    
Max Wind Speed 17 mph    
Max Gust Speed 22 mph    
Visibility 7 miles    
Events Rain    
Averages and records for this station are not official NWS values.
T = Trace of Precipitation, MM = Missing Value Source: NWS Daily Summary

Daily Weather History Graph

Daily Weather History Graph

Search for Another Location

Airport:

Trip Planner

Search our weather history database for the weather conditions in past years. The results will help you decide how hot, cold, wet, or windy it might be!

Date:

Astronomy

Feb. 07, 2013 Rise Set
Actual Time 7:12 AM CST 5:49 PM CST
Civil Twilight 6:45 AM CST 6:16 PM CST
Nautical Twilight 6:14 AM CST 6:46 PM CST
Astronomical Twilight 5:44 AM CST 7:16 PM CST
Moon 4:49 AM CST (2/7) 3:17 PM CST (2/7)
Length of Visible Light 11h 30m
Length of Day
10h 37m
Waning Crescent, 9% of the Moon is Illuminated
Feb 7
Waning Crescent
Feb 10
New
Feb 17
First Quarter
Feb 25
Full
Mar 4
Last Quarter

Hourly Weather History & Observations

Time (CST) Temp. Windchill Dew Point Humidity Pressure Visibility Wind Dir Wind Speed Gust Speed Precip Events Conditions
12:57 AM 46.9 °F - 41.0 °F 80% 29.96 in 10.0 mi SE 8.1 mph - N/A   Mostly Cloudy
1:42 AM 46.4 °F 42.4 °F 41.0 °F 81% 29.95 in 10.0 mi ESE 8.1 mph - N/A   Mostly Cloudy
1:57 AM 46.9 °F - 42.1 °F 83% 29.94 in 10.0 mi SE 5.8 mph - N/A   Overcast
2:57 AM 48.0 °F - 43.0 °F 83% 29.92 in 10.0 mi SE 6.9 mph - N/A   Overcast
3:57 AM 50.0 °F - 46.0 °F 86% 29.91 in 10.0 mi SSE 6.9 mph - N/A   Overcast
4:57 AM 52.0 °F - 48.9 °F 89% 29.90 in 10.0 mi South 16.1 mph 21.9 mph N/A   Overcast
5:12 AM 53.6 °F - 48.2 °F 82% 29.90 in 10.0 mi South 17.3 mph - N/A   Overcast
5:57 AM 53.1 °F - 48.9 °F 86% 29.89 in 10.0 mi South 11.5 mph - N/A   Overcast
6:57 AM 52.0 °F - 48.0 °F 86% 29.89 in 10.0 mi SSE 8.1 mph - N/A   Overcast
7:16 AM 51.8 °F - 48.2 °F 88% 29.90 in 10.0 mi SSE 6.9 mph - N/A   Scattered Clouds
7:49 AM 51.8 °F - 48.2 °F 88% 29.91 in 10.0 mi South 6.9 mph - N/A   Mostly Cloudy
7:57 AM 52.0 °F - 48.9 °F 89% 29.90 in 10.0 mi South 6.9 mph - N/A   Mostly Cloudy
8:57 AM 55.0 °F - 48.9 °F 80% 29.90 in 10.0 mi SE 8.1 mph - N/A   Overcast
10:57 AM 55.9 °F - 50.0 °F 80% 29.92 in 10.0 mi SSW 11.5 mph - N/A   Overcast
11:15 AM 55.4 °F - 50.0 °F 82% 29.93 in 10.0 mi SSW 11.5 mph - N/A   Overcast
11:57 AM 54.0 °F - 52.0 °F 93% 29.92 in 7.0 mi SSW 5.8 mph - 0.08 in Rain Light Rain
12:57 PM 55.0 °F - 52.0 °F 89% 29.89 in 9.0 mi SSW 9.2 mph - 0.01 in   Overcast
1:53 PM 55.4 °F - 51.8 °F 88% 29.89 in 5.0 mi West 9.2 mph - 0.00 in Rain Light Rain
1:57 PM 53.6 °F - 51.8 °F 94% 29.89 in 2.5 mi West 8.1 mph - 0.00 in Rain Light Rain
1:59 PM 54.0 °F - 52.0 °F 93% 29.88 in 2.0 mi West 5.8 mph - 0.00 in Rain Light Rain
2:02 PM 53.6 °F - 51.8 °F 94% 29.88 in 1.5 mi West 4.6 mph - 0.00 in Rain Light Rain
2:27 PM 53.6 °F - 51.8 °F 94% 29.89 in 1.2 mi West 3.5 mph - 0.00 in Rain Light Rain
2:33 PM 53.6 °F - 51.8 °F 94% 29.89 in 1.0 mi WNW 3.5 mph - 0.00 in Rain Light Rain
2:40 PM 53.6 °F - 51.8 °F 94% 29.89 in 0.8 mi WNW 5.8 mph - 0.01 in Rain Light Rain
2:57 PM 54.0 °F - 52.0 °F 93% 29.89 in 0.8 mi NNW 6.9 mph - 0.04 in Rain Light Rain
3:00 PM 53.6 °F - 51.8 °F 94% 29.89 in 1.0 mi NNW 8.1 mph - 0.00 in Rain Light Rain
3:34 PM 53.6 °F - 51.8 °F 94% 29.90 in 2.0 mi NW 8.1 mph - 0.01 in Rain Light Rain
3:44 PM 53.6 °F - 51.8 °F 94% 29.90 in 3.0 mi NNW 10.4 mph - 0.01 in Rain Light Rain
3:51 PM 51.8 °F - 51.8 °F 100% 29.90 in 3.0 mi NNW 8.1 mph - 0.01 in Rain Light Rain
3:57 PM 52.0 °F - 51.1 °F 97% 29.90 in 3.0 mi NNW 6.9 mph - 0.01 in Rain Light Rain
4:57 PM 51.1 °F - 50.0 °F 96% 29.92 in 10.0 mi NNW 12.7 mph 18.4 mph 0.05 in   Overcast
5:57 PM 50.0 °F - 48.0 °F 93% 29.95 in 9.0 mi North 6.9 mph - 0.01 in Rain Light Rain
6:57 PM 48.9 °F - 46.9 °F 93% 29.98 in 8.0 mi North 9.2 mph - 0.03 in   Overcast
7:34 PM 48.2 °F - 46.4 °F 93% 30.00 in 4.0 mi NNW 13.8 mph 18.4 mph N/A   Overcast
7:41 PM 46.4 °F 40.4 °F 46.4 °F 100% 30.00 in 2.5 mi NNW 13.8 mph 21.9 mph N/A   Overcast
7:57 PM 46.9 °F - 45.0 °F 93% 30.02 in 2.5 mi North 9.2 mph 21.9 mph N/A   Overcast
8:47 PM 44.6 °F 39.2 °F 44.6 °F 100% 30.03 in 4.0 mi North 10.4 mph 17.3 mph N/A   Overcast
8:57 PM 45.0 °F 39.7 °F 43.0 °F 93% 30.04 in 4.0 mi North 10.4 mph - N/A   Overcast
9:51 PM 44.6 °F 38.1 °F 42.8 °F 93% 30.05 in 8.0 mi North 13.8 mph 18.4 mph N/A   Overcast
9:57 PM 45.0 °F 38.9 °F 41.0 °F 86% 30.06 in 9.0 mi North 12.7 mph 19.6 mph N/A   Overcast
10:57 PM 45.0 °F 41.2 °F 39.9 °F 82% 30.07 in 10.0 mi North 6.9 mph - N/A   Overcast
11:32 PM 44.6 °F 42.2 °F 39.2 °F 81% 30.09 in 10.0 mi Variable 4.6 mph 16.1 mph N/A   Overcast
11:57 PM 43.0 °F 37.7 °F 37.9 °F 82% 30.10 in 10.0 mi North 9.2 mph - N/A   Overcast